Weather in Kareyevo

Russia / Kaluga Oblast     54°40′01″N   36°51′41″E
temp.,
°C
wind,
m/s
gust,
m/s
humid.,
%
clouds,
%
prec.,
mm/h
press.,
hPa
HPBL,
m
12 april, mon
mon1200:00+7ese22727 0.0 103224
03:00+5e2478100 0.0 103364
06:00+4ene31081100 0.0 1032194
09:00+8e51459100 0.0 1032559
12:00+11e61052100 0.0 1030723
15:00+13ese5864100 0.0 1029774
18:00+12ese4973100 0.0 1027695
21:00+10e41290100 0.0 1027333
13 april, tue
tue1300:00+9ese4139377 0.0 1026305
03:00+8se3119245 0.0 1025220
06:00+7sse3118766 0.0 1025198
09:00+13sse496462 0.0 1025326
12:00+18sse5845100 0.0 1024816
15:00+19sse573969 0.0 10231711
18:00+17sse385088 0.0 1023327
21:00+12se31067100 0.0 1023174
14 april, wed
wed1400:00+12sse414583 0.0 1022344
03:00+9sse3106977 0.0 1022212
06:00+8sse387763 0.0 1022154
09:00+13sse485548 0.0 1021339
12:00+17sse4741100 0.0 1020930
15:00+19sse573249 0.0 10191996
18:00+17se254499 0.0 1018143
21:00+11se3760100 0.0 1018119
15 april, thu
thu1500:00+10se2564100 0.0 101881
03:00+9wsw2274100 0.0 101813
06:00+9e0086100 0.0 101810
09:00+13s1270100 0.0 1017213
12:00+17sse1153100 0.0 1017850
15:00+18ese2245100 0.0 10161635
18:00+16e2352100 0.0 101565
21:00+12e2263100 0.0 101517
16 april, fri
fri1600:00+10ene2268100 0.0 101536
03:00+10nne2371100 0.0 101547
06:00+9nne3874100 0.0 1015161
09:00+9nne3879100 0.3 1016307
12:00+13ne5968100 0.0 1016784
15:00+13ne61067100 0.0 1017871
18:00+10ne71275100 0.0 1019826
21:00+7ne71567100 0.0 1021868